Starlink 5019

operational
NORAD ID: 55407 Int'l Des: 2023-014 Owner: SPXS Country: US Constellation: starlink
LEOCIRCULAR

About Starlink 5019

Description loading...

Live Position

Loading 3D Globe...

Upcoming Passes

Altitude History

Altitude vs Time

uPlot chart will show altitude changes over time

Two-Line Element Set

1 55407U 23014S 25302.50918084 -.00000574 00000-0 -40283-4 0 9997
2 55407 70.0011 35.3018 0002971 266.7974 93.2845 14.98332663152400
Epoch: Oct 29, 2025 • Age: 12 hours

Current Status

Altitude 580.4 km
Velocity 7.57 km/s
Sub-Earth Point 47.63°N, 152.02°E
Launch Date Jan 31, 2023
Age 2.7 years
Type internet

Technical Details

Classification Payload
Mass 305.00 kg
Dry Mass 290.00 kg
Total Mass 305.00 kg
Length 0.20 m
Diameter 2.80 m
Span 9.00 m
Shape Box + pan
Manufacturer SPXS
Bus Type Starlink
Phase Status In Orbit
Owner/State SPXS/US

Large Constellations

Loading constellations...